sat.trackr.live / text

‹ back to catalog

STARLINK-33594

NORAD 62770 · 2025-015N

PAYLOAD ACTIVE UNKNOWN

§ Identity

Operator
Country
US
Launch date
2025-01-21
Launch site
AFWTR
Launch vehicle
Mass (kg)
RCS (m²)

Purposes: comms

External: N2YO · Heavens-Above · Gunter

§ Orbital elements

Epoch: 2026-09-21T21:05:10.682304Z

Period
94.01 min
Inclination
53.1598°
Eccentricity
0.0001391
Mean motion
15.31709063 rev/d
Perigee alt
469.8 km
Apogee alt
471.7 km
Semi-major
6,848.8 km
B*
2.9419e-4
RAAN
129.3991°
Arg perigee
80.7001°
Mean anomaly
279.4158°
Rev number
9,454

§ Raw data

STARLINK-335941 62770U 25015N   26264.87859586  .00008777  00000+0  29419-3 0  99972 62770  53.1598 129.3991 0001391  80.7001 279.4158 15.31709063 94542

JSON: /api/v1/satellites/62770 · /tle

For live sub-satellite position, see the globe view (requires WebGL).

§ Visibility from observer

Set your observer location to see the next 7 days of passes ≥ 10°. The values pass through the URL so the page stays shareable.

No JS? Fill the form by hand. The geolocation button needs JavaScript.